Retour au catalogue

STARLINK-3670

ActifCommunicationsVLEO
NORAD 52106·PAYLOAD·🇺🇸 United States

Lancé Mar 19, 2022 depuis Cape Canaveral Space Force Station

Loading…

Prochains Passages (prochaines 24 heures)

TLE

FraisSource: CelesTrak SupGP

Époque: Sep 15, 2026, 02:18 UTC

1 52106C 22029U   26258.09631944  .00030907  00000+0  91305-3 0  2585
2 52106  53.1588 302.9333 0001334  85.7797 185.4654 15.34378517    11

Suivez STARLINK-3670 en temps réel avec AllMySat

Download on the App Store